To NAV CANADA Home Page Login to a new session Search on AWWS site Feedback and Comments Disclaimer Vers la page française équivalente Tips FAQ What's new on the site To the Forecasts and Observations / NOTAM section To "File a Flight Plan" website Publications and other links Update of the User's profile FIC Telephone Numbers My Weather Data Folder Route Weather Data Regional Weather Data Local Weather Data To the Forecasts and Observations / NOTAM section
Request Generated 02/24/2017 at 03:35:44 UTC . Weather information available at that time is displayed.

METAR/TAF

QUAQTAQ/QC    

LWIS CYHA 240300Z AUTO 28007KT M23/M26 A2994=
LWIS CYHA 240200Z AUTO 30010KT M22/M25 A2994=
LWIS CYHA 240100Z AUTO 31010KT M22/M25 A2995=

*** REMARK        : Forecast period has ended; this was the last TAF issued
*** REMARQUE : La période de prévision est échue; ceci était le dernier TAF qui a été émis
TAF CYHA 231438Z 2315/2322 FCST NOT AVBL DUE NO OBS
RMK NXT FCST WILL BE ISSUED AT 241445Z=
Your time UTC time
Weather data provided by Environment Canada and NAV CANADA